Malmstrom AFB, MT

7:56 AM MST on December 15, 2017 (GMT -0700)
Malmstrom AFB

Weather History for KGFA - February, 2013

Change the Weather History Date:

Monday, February 4, 2013

  Actual Average (KGTF) Record (KGTF)
Temperature  
Mean Temperature 42 °F -  
Max Temperature 45 °F 34 °F 62 °F (1963)
Min Temperature 37 °F 13 °F -33 °F (1989)
Degree Days  
Heating Degree Days 23    
Moisture  
Dew Point 24 °F    
Average Humidity 49    
Maximum Humidity 55    
Minimum Humidity 44    
Precipitation  
Precipitation 0.00 in - - ()
Sea Level Pressure  
Sea Level Pressure 29.92 in    
Wind  
Wind Speed 21 mph (SW)    
Max Wind Speed 28 mph    
Max Gust Speed 40 mph    
Visibility 10 miles    
Events      
Averages and records for this station are not official NWS values.
T = Trace of Precipitation, MM = Missing Value Source: NWS Daily Summary

Daily Weather History Graph

Daily Weather History Graph

Search for Another Location

Airport or City:

Trip Planner

Search our weather history database for the weather conditions in past years. The results will help you decide how hot, cold, wet, or windy it might be!

Date:

Astronomy

Feb. 04, 2013 Rise Set
Actual Time 7:46 AM MST 5:31 PM MST
Civil Twilight 7:13 AM MST 6:04 PM MST
Nautical Twilight 6:37 AM MST 6:40 PM MST
Astronomical Twilight 6:01 AM MST 7:16 PM MST
Moon 2:31 AM MST (2/4) 11:51 AM MST (2/4)
Length of Visible Light 10h 50m
Length of Day
9h 45m
Last Quarter, 36% of the Moon is Illuminated
Feb 4
Last Quarter
Feb 10
New
Feb 17
First Quarter
Feb 25
Full
Mar 4
Last Quarter

Hourly Weather History & Observations

Time (MST) Temp. Windchill Dew Point Humidity Pressure Visibility Wind Dir Wind Speed Gust Speed Precip Events Conditions
12:56 AM 39.9 °F 30.2 °F 21.0 °F 47% 29.93 in 10.0 mi SW 20.7 mph 28.8 mph N/A   Partly Cloudy
1:56 AM 39.9 °F 29.7 °F 21.9 °F 49% 29.91 in 10.0 mi SSW 23.0 mph 28.8 mph N/A   Overcast
3:56 AM 39.9 °F 30.0 °F 21.9 °F 49% 29.91 in 10.0 mi SSW 21.9 mph - N/A   Overcast
4:56 AM 39.9 °F 29.7 °F 23.0 °F 51% 29.89 in 10.0 mi SSW 23.0 mph - N/A   Mostly Cloudy
5:56 AM 39.9 °F 30.0 °F 24.1 °F 53% 29.90 in 10.0 mi SSW 21.9 mph - N/A   Partly Cloudy
6:56 AM 39.9 °F 29.7 °F 24.1 °F 53% 29.90 in 10.0 mi SSW 23.0 mph 29.9 mph N/A   Scattered Clouds
7:56 AM 39.9 °F 29.2 °F 24.1 °F 53% 29.88 in 10.0 mi SSW 25.3 mph 31.1 mph N/A   Partly Cloudy
8:56 AM 42.1 °F 32.8 °F 24.1 °F 49% 29.91 in 10.0 mi SSW 21.9 mph 28.8 mph N/A   Clear
9:56 AM 44.1 °F 35.7 °F 24.1 °F 45% 29.90 in 10.0 mi SSW 20.7 mph - N/A   Clear
10:56 AM 44.1 °F 35.4 °F 24.1 °F 45% 29.90 in 10.0 mi SSW 21.9 mph - N/A   Clear
11:56 AM 45.0 °F 36.4 °F 24.1 °F 44% 29.89 in 10.0 mi SSW 23.0 mph 28.8 mph N/A   Mostly Cloudy
12:56 PM 45.0 °F 35.8 °F 24.1 °F 44% 29.88 in 10.0 mi SSW 26.5 mph 35.7 mph N/A   Mostly Cloudy
1:56 PM 45.0 °F 35.6 °F 24.1 °F 44% 29.86 in 10.0 mi SSW 27.6 mph 40.3 mph N/A   Clear
2:56 PM 45.0 °F 36.0 °F 25.0 °F 46% 29.86 in 10.0 mi SSW 25.3 mph 36.8 mph N/A   Clear
3:56 PM 44.1 °F 35.2 °F 24.1 °F 45% 29.88 in 10.0 mi SSW 23.0 mph 33.4 mph N/A   Clear
4:56 PM 42.1 °F 35.7 °F 24.1 °F 49% 29.92 in 10.0 mi SSW 11.5 mph 20.7 mph N/A   Clear
5:56 PM 39.0 °F 31.8 °F 24.1 °F 55% 29.94 in 10.0 mi SSW 11.5 mph - N/A   Clear
6:56 PM 41.0 °F 33.9 °F 23.0 °F 49% 29.94 in 10.0 mi SW 12.7 mph - N/A   Clear
7:56 PM 41.0 °F 33.1 °F 23.0 °F 49% 29.96 in 10.0 mi SW 15.0 mph - N/A   Clear
8:56 PM 39.9 °F 31.4 °F 24.1 °F 53% 29.97 in 10.0 mi SSW 16.1 mph - N/A   Clear
9:56 PM 39.9 °F 32.1 °F 23.0 °F 51% 29.98 in 10.0 mi SW 13.8 mph - N/A   Clear
10:56 PM 39.9 °F 33.9 °F 23.0 °F 51% 29.99 in 10.0 mi WSW 9.2 mph - N/A   Partly Cloudy
11:56 PM 37.9 °F 32.7 °F 23.0 °F 55% 30.00 in 10.0 mi WSW 6.9 mph - N/A   Clear